Regional Weather Roundup
Issued by NWS

Home | Current Version | Previous Version | Text Only | Print | Product List | Glossary Off
Versions: 1 2 3 4 5 6 7 8 9 10 11 12 13 14 15 16 17 18 19 20 21 22 23 24 25 26 27 28 29 30 31 32 33 34 35 36 37 38 39 40 41 42 43 44 45 46 47 48 49 50

905
ASUS44 KMEG 290610
RWRTN
TENNESSEE HOURLY STATE WEATHER ROUNDUP
NATIONAL WEATHER SERVICE MEMPHIS TN
100 AM CDT SUN MAY 29 2016

TNZ002-004-019-021-049-052-054-088>092-290700-
WEST TENNESSEE

CITY           SKY/WX    TMP DP  RH WIND       PRES   REMARKS
MEMPHIS INTL   CLEAR     72  68  87 S7        30.05S
NWS MEMPHIS      N/A     70 N/A N/A MISG        N/A
JACKSON        CLEAR     70  65  84 S6        30.06F
DYERSBURG      CLEAR     70  64  83 S6        30.04F
UNION CITY     CLEAR     70  68  94 S6        30.03F
PARIS          CLEAR     66  63  88 S3        30.07S
LEXINGTON      CLEAR     66  66 100 CALM      30.06F
$$

TNZ008-025-027-028-033-062-065-066-290700-
NORTH MIDDLE TENNESSEE

CITY           SKY/WX    TMP DP  RH WIND       PRES   REMARKS
NASHVILLE      CLOUDY    68  62  81 S3        30.11R
CLARKSVILLE    MOCLDY    69  64  84 CALM      30.08S
SMYRNA         CLOUDY    67  66  96 CALM      30.12R
COOKEVILLE     MOCLDY    64  63  94 CALM      30.13S
CROSSVILLE     CLOUDY    63  60  90 W5        30.18S
$$

TNZ061-075-076-078-094-096-097-290700-
SOUTH MIDDLE TENNESSEE

CITY           SKY/WX    TMP DP  RH WIND       PRES   REMARKS
FAYETTEVILLE   PTCLDY    66  64  94 CALM      30.12S
TULLAHOMA        N/A     63  63 100 CALM      30.14S VSB 1
WINCHESTER     CLEAR     64  61  88 SE3       30.13F
MCMINNVILLE    CLEAR     63  63 100 CALM      30.13F
COLUMBIA       CLEAR    N/A N/A N/A E3        30.09S
SHELBYVILLE    CLEAR     68  68 100 CALM      30.12S
$$

TNZ017-018-042-046-047-290700-
NORTHEAST TENNESSEE

CITY           SKY/WX    TMP DP  RH WIND       PRES   REMARKS
TRI CITIES     CLOUDY    67  59  75 CALM      30.15S
$$

TNZ012-013-036-069-073-074-290700-
CENTRAL EAST TENNESSEE

CITY           SKY/WX    TMP DP  RH WIND       PRES   REMARKS
KNOXVILLE      NOT AVBL
OAK RIDGE      PTCLDY    71  64  78 CALM      30.13F
GATLINBURG     CLEAR     66  63  88 CALM      30.12S
$$

TNZ083-085-099-290700-
SOUTHEAST TENNESSEE

CITY           SKY/WX    TMP DP  RH WIND       PRES   REMARKS
CHATTANOOGA    CLOUDY    71  64  78 CALM      30.12S
$$

SKY/WX REPORTED AS FAIR MEANS FEW OR NO CLOUDS BELOW
12 THOUSAND FEET.





USA.gov is the U.S. government's official web portal to all federal, state and local government web resources and services.